Flag for U.S.A. Weather past 2 weeks in Indianapolis, Indiana, U.S.A.

36 °F

Passing clouds.

Feels Like: 28 °F
Forecast: 36 / 49 °F
Wind: 13 mph from Northeast

Location: Indianapolis International Airport

Current Time: Nov 30, 2015 at 2:00:11 AM

Latest Report: Nov 30, 2015 at 12:54 AM

Visibility: 10 mi

Pressure: 30.19 "Hg

Humidity: 82%

Dew point: 31 °F

Location of IndianapolisLocation

Historic Weather in Indianapolis — Graph


Indianapolis temperature yesterday

Maximum temperature yesterday: 42 °F (at 1:54 PM)
Minimum temperature yesterday: 36 °F (at 7:54 AM)
Average temperature yesterday: 39 °F

Past Weeks' High & Low Weather Summary

High65 °F (Nov 15, 1:54 PM)96% (Nov 21, 12:54 PM)30.45 "Hg (Nov 21, 12:54 PM)
Low17 °F (Nov 22, 6:54 AM)22% (Nov 20, 12:54 PM)29.59 "Hg (Nov 18, 2:54 PM)
Average45 °F66%30.17 "Hg
* Reported Nov 14 11:54 PM — Nov 29 11:54 PM, Indianapolis, Weather by CustomWeather, © 2015

Note: Actual official high and low records may vary slightly from our data, if they occured in-between our weather recording intervals... More about our weather records


Indianapolis weather history for previous 24 hours

Time TempWeatherWind HumidityBarometerVisibility
11:54 PM
Sun, Nov 29
36 °FPassing clouds.14 mph85%30.20 "Hg10 mi
10:54 PM37 °FPartly cloudy.10 mph82%30.24 "Hg10 mi
9:54 PM38 °FMostly cloudy.12 mph79%30.22 "Hg10 mi
8:54 PM38 °FOvercast.12 mph79%30.25 "Hg10 mi
7:54 PM39 °FOvercast.12 mph76%30.23 "Hg10 mi
6:54 PM39 °FOvercast.12 mph73%30.22 "Hg10 mi
5:54 PM40 °FMostly cloudy.12 mph68%30.24 "Hg10 mi
4:54 PM41 °FMostly cloudy.10 mph62%30.23 "Hg10 mi
3:54 PM42 °FMostly cloudy.10 mph62%30.23 "Hg10 mi
2:54 PM42 °FMostly cloudy.9 mph65%30.22 "Hg10 mi
1:54 PM42 °FMostly cloudy.12 mph65%30.22 "Hg10 mi
12:54 PM41 °FMostly cloudy.12 mph67%30.25 "Hg10 mi
11:54 AM41 °FMostly cloudy.9 mph70%30.27 "Hg10 mi
10:54 AM39 °FCloudy.12 mph70%30.32 "Hg10 mi
9:54 AM37 °FCloudy.9 mph79%30.31 "Hg10 mi
8:54 AM36 °FMore clouds than sun.10 mph82%30.30 "Hg10 mi
7:54 AM36 °FOvercast.13 mph85%30.29 "Hg10 mi
6:54 AM37 °FMostly cloudy.13 mph86%30.28 "Hg10 mi
5:54 AM37 °FMostly cloudy.13 mph89%30.27 "Hg10 mi
4:54 AM38 °FLight rain. Overcast.12 mph86%30.26 "Hg9 mi
3:54 AM38 °FLight rain. Overcast.8 mph86%30.27 "Hg9 mi
2:54 AM38 °FOvercast.13 mph86%30.27 "Hg10 mi
Weather by CustomWeather, © 2015

See weather overviewHow to use our weather pages